Location: Flitcham
(52.8000°N, 0.5667°E)
Time: 19:57:27
(UTC+00:00)

Cosmos 1602 Rocket - Pass Details

Date: 15 May 2026
Orbit: 597 x 625 km, 82.5° (Epoch: 7 June)

Event Time Altitude Azimuth Distance (km) Brightness Sun altitude
Rises 20:37:54 0° 352° (N) 2,861 7.9 -6.6°
Reaches altitude 10° 20:40:11 10° 358° (N) 1,956 6.9 -6.8°
Maximum altitude 20:44:22 48° 74° (ENE) 792 3.9 -7.3°
Drops below altitude 10° 20:48:34 10° 149° (SSE) 1,955 5.5 -7.7°
Enters shadow 20:48:44 - 150° (SSE) 2,023 5.6 -7.8°
